TimeEDT,TemperatureF,Dew PointF,Humidity,Sea Level PressureIn,VisibilityMPH,Wind Direction,Wind SpeedMPH,Gust SpeedMPH,PrecipitationIn,Events,Conditions,WindDirDegrees,DateUTC
12:53 AM,82.0,75.0,79,29.87,10.0,South,5.8,-,N/A,,Clear,170,2013-06-30 04:53:00
1:53 AM,82.9,75.0,77,29.86,10.0,South,6.9,-,N/A,,Partly Cloudy,190,2013-06-30 05:53:00
2:53 AM,82.9,75.9,79,29.85,9.0,SSE,10.4,-,N/A,,Mostly Cloudy,160,2013-06-30 06:53:00
3:53 AM,82.9,75.0,77,29.84,9.0,South,6.9,-,N/A,,Partly Cloudy,190,2013-06-30 07:53:00
4:53 AM,82.9,75.0,77,29.86,10.0,SSW,9.2,-,N/A,,Partly Cloudy,210,2013-06-30 08:53:00
5:19 AM,82.4,75.2,79,29.85,9.0,South,5.8,-,N/A,,Mostly Cloudy,180,2013-06-30 09:19:00
5:48 AM,82.4,75.2,79,29.85,10.0,SSW,10.4,-,0.00,,Mostly Cloudy,210,2013-06-30 09:48:00
5:53 AM,82.0,75.9,82,29.85,10.0,SSW,8.1,-,0.00,,Mostly Cloudy,200,2013-06-30 09:53:00
6:53 AM,82.0,75.9,82,29.86,10.0,SSW,10.4,-,N/A,,Mostly Cloudy,200,2013-06-30 10:53:00
7:53 AM,84.0,75.0,74,29.86,10.0,SSW,10.4,-,N/A,,Scattered Clouds,210,2013-06-30 11:53:00
8:53 AM,84.0,75.0,74,29.88,10.0,SSW,15.0,-,N/A,,Mostly Cloudy,210,2013-06-30 12:53:00
9:53 AM,86.0,75.0,70,29.89,10.0,SSW,12.7,21.9,N/A,,Scattered Clouds,210,2013-06-30 13:53:00
10:17 AM,87.8,75.2,66,29.88,10.0,SSW,19.6,23.0,N/A,,Mostly Cloudy,210,2013-06-30 14:17:00
10:53 AM,86.0,75.9,72,29.89,10.0,SW,18.4,-,N/A,,Mostly Cloudy,220,2013-06-30 14:53:00
11:44 AM,87.8,75.2,66,29.88,10.0,SSW,16.1,23.0,N/A,,Scattered Clouds,210,2013-06-30 15:44:00
11:53 AM,88.0,75.9,67,29.88,10.0,SW,17.3,24.2,N/A,,Scattered Clouds,230,2013-06-30 15:53:00
12:53 PM,87.1,75.9,69,29.88,10.0,South,13.8,23.0,N/A,,Scattered Clouds,190,2013-06-30 16:53:00
1:53 PM,87.1,75.9,69,29.87,10.0,SSW,17.3,24.2,N/A,,Mostly Cloudy,210,2013-06-30 17:53:00
2:53 PM,88.0,75.0,65,29.85,10.0,SSW,19.6,25.3,N/A,,Mostly Cloudy,210,2013-06-30 18:53:00
3:00 PM,89.6,75.2,62,29.85,10.0,SW,18.4,25.3,N/A,,Partly Cloudy,220,2013-06-30 19:00:00
3:53 PM,87.1,75.9,69,29.85,10.0,SSW,17.3,-,N/A,,Scattered Clouds,200,2013-06-30 19:53:00
4:53 PM,87.1,75.0,67,29.85,10.0,SSW,17.3,25.3,N/A,,Clear,210,2013-06-30 20:53:00
5:53 PM,87.1,75.0,67,29.85,10.0,SSW,18.4,24.2,N/A,,Mostly Cloudy,200,2013-06-30 21:53:00
6:53 PM,84.9,73.9,69,29.86,10.0,South,12.7,-,N/A,,Mostly Cloudy,190,2013-06-30 22:53:00
7:00 PM,84.2,73.4,70,29.86,10.0,South,15.0,20.7,N/A,,Partly Cloudy,190,2013-06-30 23:00:00
7:53 PM,82.0,72.0,71,29.88,10.0,SE,11.5,-,0.00,Thunderstorm,Overcast,140,2013-06-30 23:53:00
8:22 PM,82.4,75.2,79,29.88,9.0,South,12.7,17.3,0.00,Rain,Light Rain,170,2013-07-01 00:22:00
8:37 PM,82.4,73.4,74,29.88,10.0,South,12.7,-,0.00,Thunderstorm,Mostly Cloudy,190,2013-07-01 00:37:00
8:53 PM,84.0,73.9,72,29.88,10.0,South,11.5,19.6,0.00,Thunderstorm,Mostly Cloudy,190,2013-07-01 00:53:00
9:48 PM,78.8,75.2,89,29.91,3.0,SW,20.7,26.5,0.11,Rain-Thunderstorm,Heavy Thunderstorms and Rain,230,2013-07-01 01:48:00
9:53 PM,75.9,75.9,100,29.91,3.0,WSW,18.4,26.5,0.13,Rain-Thunderstorm,Light Thunderstorms and Rain,250,2013-07-01 01:53:00
10:53 PM,78.1,-9999,N/A,29.91,9.0,Calm,Calm,-,0.06,Thunderstorm,Mostly Cloudy,0,2013-07-01 02:53:00
11:05 PM,80.6,-9999,N/A,29.91,9.0,SSW,16.1,23.0,N/A,Thunderstorm,Thunderstorm,200,2013-07-01 03:05:00
11:21 PM,78.8,-9999,N/A,29.92,6.0,SSW,10.4,-,0.00,Rain-Thunderstorm,Light Thunderstorms and Rain,200,2013-07-01 03:21:00
11:30 PM,78.8,-9999,N/A,29.93,8.0,South,8.1,-,0.00,Rain-Thunderstorm,Light Rain,190,2013-07-01 03:30:00
11:53 PM,79.0,-9999,N/A,29.93,8.0,South,6.9,-,0.00,Rain-Thunderstorm,Light Rain,180,2013-07-01 03:53:00